Time,TemperatureF,DewpointF,PressureIn,WindDirection,WindDirectionDegrees,WindSpeedMPH,WindSpeedGustMPH,Humidity,HourlyPrecipIn,Conditions,Clouds,dailyrainin,SoftwareType,DateUTC
2013-01-25 00:04:00,56.2,49.4,30.28,NW,321,0.0,-999.0,78,0.00,,,0.00,Wunderground v.1.15,2013-01-25 05:04:00,
2013-01-25 00:09:00,56.1,49.7,30.28,NW,321,0.0,-999.0,79,0.00,,,0.00,Wunderground v.1.15,2013-01-25 05:09:00,
2013-01-25 00:14:00,56.0,49.6,30.28,NW,321,0.0,-999.0,79,0.00,,,0.00,Wunderground v.1.15,2013-01-25 05:14:00,
2013-01-25 00:19:00,56.0,49.6,30.28,NW,321,0.0,-999.0,79,0.00,,,0.00,Wunderground v.1.15,2013-01-25 05:19:00,
2013-01-25 00:24:00,55.9,49.8,30.28,NW,321,0.0,-999.0,80,0.00,,,0.00,Wunderground v.1.15,2013-01-25 05:24:00,
2013-01-25 00:29:00,55.9,50.2,30.28,NW,321,0.0,-999.0,81,0.00,,,0.00,Wunderground v.1.15,2013-01-25 05:29:00,
2013-01-25 00:39:00,55.8,50.4,30.27,NW,321,0.0,-999.0,82,0.00,,,0.00,Wunderground v.1.15,2013-01-25 05:39:00,
2013-01-25 00:49:00,55.7,50.6,30.28,NW,321,0.0,-999.0,83,0.00,,,0.00,Wunderground v.1.15,2013-01-25 05:49:00,
2013-01-25 00:54:00,55.6,50.8,30.27,NW,321,0.0,-999.0,84,0.00,,,0.00,Wunderground v.1.15,2013-01-25 05:54:00,
2013-01-25 00:59:00,55.5,50.4,30.27,NW,321,0.0,-999.0,83,0.00,,,0.00,Wunderground v.1.15,2013-01-25 05:59:00,
2013-01-25 01:09:00,55.3,49.9,30.27,NW,321,0.0,-999.0,82,0.00,,,0.00,Wunderground v.1.15,2013-01-25 06:09:00,
2013-01-25 01:14:00,55.1,49.4,30.27,NW,321,0.0,-999.0,81,0.00,,,0.00,Wunderground v.1.15,2013-01-25 06:14:00,
2013-01-25 01:19:00,55.1,49.7,30.28,NW,321,0.0,-999.0,82,0.00,,,0.00,Wunderground v.1.15,2013-01-25 06:19:00,
2013-01-25 01:24:00,55.0,49.6,30.28,NW,321,0.0,-999.0,82,0.00,,,0.00,Wunderground v.1.15,2013-01-25 06:24:00,
2013-01-25 01:34:00,54.8,49.7,30.28,NW,321,0.0,-999.0,83,0.00,,,0.00,Wunderground v.1.15,2013-01-25 06:34:00,
2013-01-25 01:39:00,54.7,49.6,30.28,NW,321,0.0,-999.0,83,0.00,,,0.00,Wunderground v.1.15,2013-01-25 06:39:00,
2013-01-25 01:44:00,54.7,50.6,30.28,NW,321,0.0,-999.0,86,0.00,,,0.00,Wunderground v.1.15,2013-01-25 06:44:00,
2013-01-25 01:49:00,54.6,50.2,30.28,NW,321,0.0,-999.0,85,0.00,,,0.00,Wunderground v.1.15,2013-01-25 06:49:00,
2013-01-25 01:54:00,54.4,50.0,30.28,NW,321,0.0,-999.0,85,0.00,,,0.00,Wunderground v.1.15,2013-01-25 06:54:00,
2013-01-25 01:59:00,54.1,49.7,30.28,NW,321,0.0,-999.0,85,0.00,,,0.00,Wunderground v.1.15,2013-01-25 06:59:00,
2013-01-25 02:09:00,53.8,50.0,30.28,NW,321,0.0,-999.0,87,0.00,,,0.00,Wunderground v.1.15,2013-01-25 07:09:00,
2013-01-25 02:14:00,53.7,50.2,30.28,NW,321,0.0,-999.0,88,0.00,,,0.00,Wunderground v.1.15,2013-01-25 07:14:00,
2013-01-25 02:19:00,53.6,50.1,30.28,NW,321,0.0,-999.0,88,0.00,,,0.00,Wunderground v.1.15,2013-01-25 07:19:00,
2013-01-25 02:29:00,53.3,49.8,30.28,NW,321,0.0,-999.0,88,0.00,,,0.00,Wunderground v.1.15,2013-01-25 07:29:00,
2013-01-25 02:34:00,53.2,50.0,30.28,NW,321,0.0,-999.0,89,0.00,,,0.00,Wunderground v.1.15,2013-01-25 07:34:00,
2013-01-25 02:39:00,53.1,49.9,30.28,NW,321,0.0,-999.0,89,0.00,,,0.00,Wunderground v.1.15,2013-01-25 07:39:00,
2013-01-25 02:44:00,53.0,49.5,30.27,NW,321,0.0,-999.0,88,0.00,,,0.00,Wunderground v.1.15,2013-01-25 07:44:00,
2013-01-25 02:54:00,52.9,49.4,30.27,NW,321,0.0,-999.0,88,0.00,,,0.00,Wunderground v.1.15,2013-01-25 07:54:00,
2013-01-25 02:59:00,52.9,50.0,30.27,NW,321,0.0,-999.0,90,0.00,,,0.00,Wunderground v.1.15,2013-01-25 07:59:00,
2013-01-25 03:04:00,52.9,49.7,30.27,NW,321,0.0,-999.0,89,0.00,,,0.00,Wunderground v.1.15,2013-01-25 08:04:00,
2013-01-25 03:09:00,52.8,49.3,30.27,NW,321,0.0,-999.0,88,0.00,,,0.00,Wunderground v.1.15,2013-01-25 08:09:00,
2013-01-25 03:19:00,52.6,49.1,30.27,NW,321,0.0,-999.0,88,0.00,,,0.00,Wunderground v.1.15,2013-01-25 08:19:00,
2013-01-25 03:24:00,52.6,49.4,30.26,NW,321,0.0,-999.0,89,0.00,,,0.00,Wunderground v.1.15,2013-01-25 08:24:00,
2013-01-25 03:29:00,52.6,49.4,30.26,NW,321,0.0,-999.0,89,0.00,,,0.00,Wunderground v.1.15,2013-01-25 08:29:00,
2013-01-25 03:34:00,52.6,49.8,30.26,NW,321,0.0,-999.0,90,0.00,,,0.00,Wunderground v.1.15,2013-01-25 08:34:00,
2013-01-25 03:44:00,52.5,49.7,30.25,NW,321,0.0,-999.0,90,0.00,,,0.00,Wunderground v.1.15,2013-01-25 08:44:00,
2013-01-25 03:49:00,52.5,49.7,30.25,NW,321,0.0,-999.0,90,0.00,,,0.00,Wunderground v.1.15,2013-01-25 08:49:00,
2013-01-25 03:54:00,52.4,49.6,30.25,NW,321,0.0,-999.0,90,0.00,,,0.00,Wunderground v.1.15,2013-01-25 08:54:00,
2013-01-25 04:04:00,52.3,49.8,30.25,NW,321,0.0,-999.0,91,0.00,,,0.00,Wunderground v.1.15,2013-01-25 09:04:00,
2013-01-25 04:09:00,52.2,49.4,30.25,NW,321,0.0,-999.0,90,0.00,,,0.00,Wunderground v.1.15,2013-01-25 09:09:00,
2013-01-25 04:19:00,52.1,49.3,30.25,NW,321,0.0,-999.0,90,0.00,,,0.00,Wunderground v.1.15,2013-01-25 09:19:00,
2013-01-25 04:24:00,52.1,49.3,30.25,NW,321,0.0,-999.0,90,0.00,,,0.00,Wunderground v.1.15,2013-01-25 09:24:00,
2013-01-25 04:29:00,52.1,49.3,30.25,NW,321,0.0,-999.0,90,0.00,,,0.00,Wunderground v.1.15,2013-01-25 09:29:00,
2013-01-25 04:34:00,52.0,49.2,30.25,NW,321,0.0,-999.0,90,0.00,,,0.00,Wunderground v.1.15,2013-01-25 09:34:00,
2013-01-25 04:44:00,51.9,49.4,30.25,NW,321,0.0,-999.0,91,0.00,,,0.00,Wunderground v.1.15,2013-01-25 09:44:00,
2013-01-25 04:54:00,51.8,49.0,30.26,NW,321,0.0,-999.0,90,0.00,,,0.00,Wunderground v.1.15,2013-01-25 09:54:00,
2013-01-25 04:59:00,51.7,48.9,30.26,NW,321,0.0,-999.0,90,0.00,,,0.00,Wunderground v.1.15,2013-01-25 09:59:00,
2013-01-25 05:04:00,51.6,48.8,30.26,NW,321,0.0,-999.0,90,0.00,,,0.00,Wunderground v.1.15,2013-01-25 10:04:00,
2013-01-25 05:09:00,51.6,48.8,30.26,NW,321,0.0,-999.0,90,0.00,,,0.00,Wunderground v.1.15,2013-01-25 10:09:00,
2013-01-25 05:19:00,51.4,48.6,30.26,NW,321,0.0,-999.0,90,0.00,,,0.00,Wunderground v.1.15,2013-01-25 10:19:00,
2013-01-25 05:24:00,51.4,48.6,30.26,NW,321,0.0,-999.0,90,0.00,,,0.00,Wunderground v.1.15,2013-01-25 10:24:00,
2013-01-25 05:34:00,51.4,48.9,30.26,NW,321,0.0,-999.0,91,0.00,,,0.00,Wunderground v.1.15,2013-01-25 10:34:00,
2013-01-25 05:39:00,51.5,49.0,30.26,NW,321,0.0,-999.0,91,0.00,,,0.00,Wunderground v.1.15,2013-01-25 10:39:00,
2013-01-25 05:44:00,51.4,48.6,30.27,NW,321,0.0,-999.0,90,0.00,,,0.00,Wunderground v.1.15,2013-01-25 10:44:00,
2013-01-25 05:49:00,51.4,48.9,30.27,NW,321,0.0,-999.0,91,0.00,,,0.00,Wunderground v.1.15,2013-01-25 10:49:00,
2013-01-25 05:59:00,51.4,48.9,30.27,NW,321,0.0,-999.0,91,0.00,,,0.00,Wunderground v.1.15,2013-01-25 10:59:00,
2013-01-25 06:09:00,51.2,48.4,30.27,NW,321,0.0,-999.0,90,0.00,,,0.00,Wunderground v.1.15,2013-01-25 11:09:00,
2013-01-25 06:14:00,51.2,48.7,30.28,NW,321,0.0,-999.0,91,0.00,,,0.00,Wunderground v.1.15,2013-01-25 11:14:00,
2013-01-25 06:19:00,51.2,48.7,30.27,NW,321,0.0,-999.0,91,0.00,,,0.00,Wunderground v.1.15,2013-01-25 11:19:00,
2013-01-25 06:24:00,51.2,48.7,30.27,NW,321,0.0,-999.0,91,0.00,,,0.00,Wunderground v.1.15,2013-01-25 11:24:00,
2013-01-25 06:29:00,51.0,48.5,30.28,NW,321,0.0,-999.0,91,0.00,,,0.00,Wunderground v.1.15,2013-01-25 11:29:00,
2013-01-25 06:34:00,51.0,48.5,30.28,NW,321,0.0,-999.0,91,0.00,,,0.00,Wunderground v.1.15,2013-01-25 11:34:00,
2013-01-25 06:39:00,51.0,48.5,30.28,NW,321,0.0,-999.0,91,0.00,,,0.00,Wunderground v.1.15,2013-01-25 11:39:00,
2013-01-25 06:44:00,50.8,48.3,30.28,NW,321,0.0,-999.0,91,0.00,,,0.00,Wunderground v.1.15,2013-01-25 11:44:00,
2013-01-25 06:49:00,50.7,48.5,30.28,NW,321,0.0,-999.0,92,0.00,,,0.00,Wunderground v.1.15,2013-01-25 11:49:00,
2013-01-25 06:59:00,50.6,48.7,30.28,NW,321,0.0,-999.0,93,0.00,,,0.00,Wunderground v.1.15,2013-01-25 11:59:00,
2013-01-25 07:09:00,50.7,49.0,30.29,NW,321,0.0,-999.0,94,0.00,,,0.00,Wunderground v.1.15,2013-01-25 12:09:00,
2013-01-25 07:14:00,50.8,49.1,30.28,NW,321,0.0,-999.0,94,0.00,,,0.00,Wunderground v.1.15,2013-01-25 12:14:00,
2013-01-25 07:19:00,50.8,48.8,30.28,NW,321,0.0,-999.0,93,0.00,,,0.00,Wunderground v.1.15,2013-01-25 12:19:00,
2013-01-25 07:24:00,50.6,48.7,30.28,NW,321,0.0,-999.0,93,0.00,,,0.00,Wunderground v.1.15,2013-01-25 12:24:00,
2013-01-25 07:29:00,50.5,48.6,30.28,NW,321,0.0,-999.0,93,0.00,,,0.00,Wunderground v.1.15,2013-01-25 12:29:00,
2013-01-25 07:34:00,50.5,48.6,30.28,NW,321,0.0,-999.0,93,0.00,,,0.00,Wunderground v.1.15,2013-01-25 12:34:00,
2013-01-25 07:39:00,50.7,49.3,30.28,NW,321,0.0,-999.0,95,0.00,,,0.00,Wunderground v.1.15,2013-01-25 12:39:00,
2013-01-25 07:49:00,51.0,49.3,30.28,NW,321,0.0,-999.0,94,0.00,,,0.00,Wunderground v.1.15,2013-01-25 12:49:00,
2013-01-25 07:54:00,51.4,50.0,30.29,NW,321,0.0,-999.0,95,0.00,,,0.00,Wunderground v.1.15,2013-01-25 12:54:00,
2013-01-25 07:59:00,51.9,50.2,30.29,NW,321,0.0,-999.0,94,0.00,,,0.00,Wunderground v.1.15,2013-01-25 12:59:00,
2013-01-25 08:04:00,52.3,50.0,30.29,NW,321,0.0,-999.0,92,0.00,,,0.00,Wunderground v.1.15,2013-01-25 13:04:00,
2013-01-25 08:14:00,52.5,50.2,30.29,NW,321,0.0,-999.0,92,0.00,,,0.00,Wunderground v.1.15,2013-01-25 13:14:00,
2013-01-25 08:19:00,52.9,50.6,30.29,NW,321,0.0,-999.0,92,0.00,,,0.00,Wunderground v.1.15,2013-01-25 13:19:00,
2013-01-25 08:24:00,53.3,50.7,30.29,NW,321,0.0,-999.0,91,0.00,,,0.00,Wunderground v.1.15,2013-01-25 13:24:00,
2013-01-25 08:29:00,53.8,50.9,30.29,NW,321,0.0,-999.0,90,0.00,,,0.00,Wunderground v.1.15,2013-01-25 13:29:00,
2013-01-25 08:34:00,54.2,51.3,30.29,NW,321,0.0,-999.0,90,0.00,,,0.00,Wunderground v.1.15,2013-01-25 13:34:00,
2013-01-25 08:39:00,54.6,51.7,30.29,NW,321,0.0,-999.0,90,0.00,,,0.00,Wunderground v.1.15,2013-01-25 13:39:00,
2013-01-25 08:49:00,55.6,52.4,30.29,NW,321,0.0,-999.0,89,0.00,,,0.00,Wunderground v.1.15,2013-01-25 13:49:00,
2013-01-25 08:54:00,56.4,52.6,30.30,NW,321,0.0,-999.0,87,0.00,,,0.00,Wunderground v.1.15,2013-01-25 13:54:00,
2013-01-25 08:59:00,57.1,53.3,30.30,NW,321,0.0,-999.0,87,0.00,,,0.00,Wunderground v.1.15,2013-01-25 13:59:00,
2013-01-25 09:09:00,59.1,53.9,30.30,NW,321,0.0,-999.0,83,0.00,,,0.00,Wunderground v.1.15,2013-01-25 14:09:00,
2013-01-25 09:14:00,60.4,54.5,30.30,NW,322,0.0,-999.0,81,0.00,,,0.00,Wunderground v.1.15,2013-01-25 14:14:00,
2013-01-25 09:19:00,61.6,54.7,30.30,NW,321,0.0,-999.0,78,0.00,,,0.00,Wunderground v.1.15,2013-01-25 14:19:00,
2013-01-25 09:24:00,62.6,54.9,30.31,NW,321,0.0,-999.0,76,0.00,,,0.00,Wunderground v.1.15,2013-01-25 14:24:00,
2013-01-25 09:29:00,63.4,53.8,30.31,NW,321,0.0,-999.0,71,0.00,,,0.00,Wunderground v.1.15,2013-01-25 14:29:00,
2013-01-25 09:34:00,64.2,55.0,30.30,NNW,331,0.0,-999.0,72,0.00,,,0.00,Wunderground v.1.15,2013-01-25 14:34:00,
2013-01-25 09:39:00,64.8,54.4,30.31,NNW,332,0.0,-999.0,69,0.00,,,0.00,Wunderground v.1.15,2013-01-25 14:39:00,
2013-01-25 09:44:00,65.4,55.0,30.31,NNW,332,0.0,-999.0,69,0.00,,,0.00,Wunderground v.1.15,2013-01-25 14:44:00,
2013-01-25 09:54:00,66.1,54.4,30.31,NNE,19,0.0,-999.0,66,0.00,,,0.00,Wunderground v.1.15,2013-01-25 14:54:00,
2013-01-25 09:59:00,66.3,54.6,30.31,NNE,17,0.0,-999.0,66,0.00,,,0.00,Wunderground v.1.15,2013-01-25 14:59:00,
2013-01-25 10:09:00,67.3,54.3,30.31,NNE,13,0.0,-999.0,63,0.00,,,0.00,Wunderground v.1.15,2013-01-25 15:09:00,
2013-01-25 10:14:00,67.6,55.0,30.31,North,5,0.0,-999.0,64,0.00,,,0.00,Wunderground v.1.15,2013-01-25 15:14:00,
2013-01-25 10:19:00,67.9,54.4,30.30,North,5,0.0,-999.0,62,0.00,,,0.00,Wunderground v.1.15,2013-01-25 15:19:00,
2013-01-25 10:24:00,68.3,54.3,30.30,North,360,0.0,-999.0,61,0.00,,,0.00,Wunderground v.1.15,2013-01-25 15:24:00,
2013-01-25 10:29:00,68.7,54.3,30.30,NE,41,0.0,-999.0,60,0.00,,,0.00,Wunderground v.1.15,2013-01-25 15:29:00,
2013-01-25 10:34:00,68.5,56.3,30.30,ENE,63,1.0,-999.0,65,0.00,,,0.00,Wunderground v.1.15,2013-01-25 15:34:00,
2013-01-25 10:39:00,68.1,56.3,30.30,ENE,67,2.0,-999.0,66,0.00,,,0.00,Wunderground v.1.15,2013-01-25 15:39:00,
2013-01-25 10:49:00,68.6,56.4,30.30,ENE,68,1.0,-999.0,65,0.00,,,0.00,Wunderground v.1.15,2013-01-25 15:49:00,
2013-01-25 10:54:00,68.5,56.3,30.30,ENE,68,2.0,-999.0,65,0.00,,,0.00,Wunderground v.1.15,2013-01-25 15:54:00,
2013-01-25 10:59:00,68.7,55.6,30.30,ENE,71,1.0,-999.0,63,0.00,,,0.00,Wunderground v.1.15,2013-01-25 15:59:00,
2013-01-25 11:09:00,69.1,56.4,30.30,ENE,74,2.0,-999.0,64,0.00,,,0.00,Wunderground v.1.15,2013-01-25 16:09:00,
2013-01-25 11:14:00,69.3,56.6,30.29,ENE,73,2.0,-999.0,64,0.00,,,0.00,Wunderground v.1.15,2013-01-25 16:14:00,
2013-01-25 11:19:00,69.7,55.2,30.29,ENE,72,1.0,-999.0,60,0.00,,,0.00,Wunderground v.1.15,2013-01-25 16:19:00,
2013-01-25 11:24:00,69.6,55.1,30.29,ENE,76,3.0,-999.0,60,0.00,,,0.00,Wunderground v.1.15,2013-01-25 16:24:00,
2013-01-25 11:29:00,69.6,54.2,30.29,ENE,71,4.0,-999.0,58,0.00,,,0.00,Wunderground v.1.15,2013-01-25 16:29:00,
2013-01-25 11:39:00,69.9,54.0,30.29,ENE,67,3.0,-999.0,57,0.00,,,0.00,Wunderground v.1.15,2013-01-25 16:39:00,
2013-01-25 11:44:00,70.5,53.6,30.28,ENE,68,1.0,-999.0,55,0.00,,,0.00,Wunderground v.1.15,2013-01-25 16:44:00,
2013-01-25 11:49:00,71.2,53.7,30.28,ENE,68,1.0,-999.0,54,0.00,,,0.00,Wunderground v.1.15,2013-01-25 16:49:00,
2013-01-25 11:54:00,71.7,53.7,30.28,ENE,68,1.0,-999.0,53,0.00,,,0.00,Wunderground v.1.15,2013-01-25 16:54:00,
2013-01-25 11:59:00,72.0,52.9,30.28,ENE,76,1.0,-999.0,51,0.00,,,0.00,Wunderground v.1.15,2013-01-25 16:59:00,
2013-01-25 12:09:00,72.3,53.2,30.27,ENE,77,1.0,-999.0,51,0.00,,,0.00,Wunderground v.1.15,2013-01-25 17:09:00,
2013-01-25 12:14:00,72.6,52.9,30.27,ENE,76,0.0,-999.0,50,0.00,,,0.00,Wunderground v.1.15,2013-01-25 17:14:00,
2013-01-25 12:24:00,72.8,54.1,30.26,ENE,72,1.0,-999.0,52,0.00,,,0.00,Wunderground v.1.15,2013-01-25 17:24:00,
2013-01-25 12:29:00,72.7,53.5,30.26,ENE,72,1.0,-999.0,51,0.00,,,0.00,Wunderground v.1.15,2013-01-25 17:29:00,
2013-01-25 12:34:00,72.7,53.0,30.26,ESE,121,0.0,-999.0,50,0.00,,,0.00,Wunderground v.1.15,2013-01-25 17:34:00,
2013-01-25 12:44:00,72.1,54.0,30.25,SE,126,2.0,-999.0,53,0.00,,,0.00,Wunderground v.1.15,2013-01-25 17:44:00,
2013-01-25 12:49:00,72.5,53.3,30.25,SE,126,0.0,-999.0,51,0.00,,,0.00,Wunderground v.1.15,2013-01-25 17:49:00,
2013-01-25 12:59:00,72.5,53.9,30.24,SE,126,1.0,-999.0,52,0.00,,,0.00,Wunderground v.1.15,2013-01-25 17:59:00,
2013-01-25 13:04:00,72.9,53.2,30.24,ESE,123,0.0,-999.0,50,0.00,,,0.00,Wunderground v.1.15,2013-01-25 18:04:00,
2013-01-25 13:09:00,72.9,52.6,30.23,East,81,1.0,-999.0,49,0.00,,,0.00,Wunderground v.1.15,2013-01-25 18:09:00,
2013-01-25 13:19:00,73.0,53.3,30.22,ENE,74,1.0,-999.0,50,0.00,,,0.00,Wunderground v.1.15,2013-01-25 18:19:00,
2013-01-25 13:29:00,73.6,52.7,30.22,ENE,73,2.0,-999.0,48,0.00,,,0.00,Wunderground v.1.15,2013-01-25 18:29:00,
2013-01-25 13:34:00,73.7,52.8,30.22,ENE,71,2.0,-999.0,48,0.00,,,0.00,Wunderground v.1.15,2013-01-25 18:34:00,
2013-01-25 13:39:00,73.9,53.5,30.21,ENE,65,1.0,-999.0,49,0.00,,,0.00,Wunderground v.1.15,2013-01-25 18:39:00,
2013-01-25 13:44:00,74.0,53.1,30.21,ENE,67,1.0,-999.0,48,0.00,,,0.00,Wunderground v.1.15,2013-01-25 18:44:00,
2013-01-25 13:54:00,73.9,53.5,30.21,SSE,161,1.0,-999.0,49,0.00,,,0.00,Wunderground v.1.15,2013-01-25 18:54:00,
2013-01-25 13:59:00,74.2,53.2,30.21,SSE,167,2.0,-999.0,48,0.00,,,0.00,Wunderground v.1.15,2013-01-25 18:59:00,
2013-01-25 14:04:00,74.2,52.1,30.21,SSE,164,3.0,-999.0,46,0.00,,,0.00,Wunderground v.1.15,2013-01-25 19:04:00,
2013-01-25 14:14:00,74.2,52.1,30.20,WNW,286,1.0,-999.0,46,0.00,,,0.00,Wunderground v.1.15,2013-01-25 19:14:00,
2013-01-25 14:19:00,74.6,52.4,30.20,SSE,161,2.0,-999.0,46,0.00,,,0.00,Wunderground v.1.15,2013-01-25 19:19:00,
2013-01-25 14:24:00,74.9,52.7,30.20,SE,128,2.0,-999.0,46,0.00,,,0.00,Wunderground v.1.15,2013-01-25 19:24:00,
2013-01-25 14:29:00,75.0,52.2,30.20,SE,133,1.0,-999.0,45,0.00,,,0.00,Wunderground v.1.15,2013-01-25 19:29:00,
2013-01-25 14:34:00,75.5,52.7,30.20,SE,133,1.0,-999.0,45,0.00,,,0.00,Wunderground v.1.15,2013-01-25 19:34:00,
2013-01-25 14:44:00,75.7,53.4,30.19,SSE,148,1.0,-999.0,46,0.00,,,0.00,Wunderground v.1.15,2013-01-25 19:44:00,
2013-01-25 14:49:00,75.3,51.9,30.19,SW,229,2.0,-999.0,44,0.00,,,0.00,Wunderground v.1.15,2013-01-25 19:49:00,
2013-01-25 14:54:00,74.9,52.7,30.19,SW,230,3.0,-999.0,46,0.00,,,0.00,Wunderground v.1.15,2013-01-25 19:54:00,
2013-01-25 14:59:00,75.4,52.6,30.19,SW,231,2.0,-999.0,45,0.00,,,0.00,Wunderground v.1.15,2013-01-25 19:59:00,
2013-01-25 15:09:00,75.8,52.9,30.18,SW,232,1.0,-999.0,45,0.00,,,0.00,Wunderground v.1.15,2013-01-25 20:09:00,
2013-01-25 15:14:00,76.2,52.7,30.19,SW,233,1.0,-999.0,44,0.00,,,0.00,Wunderground v.1.15,2013-01-25 20:14:00,
2013-01-25 15:19:00,76.6,53.1,30.19,SW,233,1.0,-999.0,44,0.00,,,0.00,Wunderground v.1.15,2013-01-25 20:19:00,
2013-01-25 15:24:00,77.0,54.0,30.19,ESE,123,0.0,-999.0,45,0.00,,,0.00,Wunderground v.1.15,2013-01-25 20:24:00,
2013-01-25 15:34:00,76.6,52.4,30.19,ESE,119,2.0,-999.0,43,0.00,,,0.00,Wunderground v.1.15,2013-01-25 20:34:00,
2013-01-25 15:39:00,76.4,52.9,30.19,ESE,119,1.0,-999.0,44,0.00,,,0.00,Wunderground v.1.15,2013-01-25 20:39:00,
2013-01-25 15:44:00,76.2,53.3,30.19,ESE,119,1.0,-999.0,45,0.00,,,0.00,Wunderground v.1.15,2013-01-25 20:44:00,
2013-01-25 15:49:00,76.3,52.2,30.19,ESE,119,0.0,-999.0,43,0.00,,,0.00,Wunderground v.1.15,2013-01-25 20:49:00,
2013-01-25 15:54:00,76.8,52.6,30.19,ESE,119,0.0,-999.0,43,0.00,,,0.00,Wunderground v.1.15,2013-01-25 20:54:00,
2013-01-25 15:59:00,76.9,52.1,30.19,ESE,119,0.0,-999.0,42,0.00,,,0.00,Wunderground v.1.15,2013-01-25 20:59:00,
2013-01-25 16:09:00,77.5,52.6,30.18,SSE,149,1.0,-999.0,42,0.00,,,0.00,Wunderground v.1.15,2013-01-25 21:09:00,
2013-01-25 16:14:00,77.9,52.3,30.18,SSE,150,0.0,-999.0,41,0.00,,,0.00,Wunderground v.1.15,2013-01-25 21:14:00,
2013-01-25 16:19:00,78.4,52.7,30.18,SSE,149,0.0,-999.0,41,0.00,,,0.00,Wunderground v.1.15,2013-01-25 21:19:00,
2013-01-25 16:24:00,78.4,54.0,30.18,SSE,148,0.0,-999.0,43,0.00,,,0.00,Wunderground v.1.15,2013-01-25 21:24:00,
2013-01-25 16:29:00,78.0,53.0,30.18,SSE,148,1.0,-999.0,42,0.00,,,0.00,Wunderground v.1.15,2013-01-25 21:29:00,
2013-01-25 16:34:00,77.5,53.2,30.19,ESE,122,1.0,-999.0,43,0.00,,,0.00,Wunderground v.1.15,2013-01-25 21:34:00,
2013-01-25 16:44:00,76.0,52.5,30.19,WSW,238,2.0,-999.0,44,0.00,,,0.00,Wunderground v.1.15,2013-01-25 21:44:00,
2013-01-25 16:49:00,75.3,51.9,30.19,NW,313,3.0,-999.0,44,0.00,,,0.00,Wunderground v.1.15,2013-01-25 21:49:00,
2013-01-25 16:54:00,75.1,52.3,30.19,SW,235,2.0,-999.0,45,0.00,,,0.00,Wunderground v.1.15,2013-01-25 21:54:00,
2013-01-25 16:59:00,74.2,52.1,30.19,WSW,237,4.0,-999.0,46,0.00,,,0.00,Wunderground v.1.15,2013-01-25 21:59:00,
2013-01-25 17:09:00,74.1,52.0,30.19,WSW,249,3.0,-999.0,46,0.00,,,0.00,Wunderground v.1.15,2013-01-25 22:09:00,
2013-01-25 17:14:00,74.0,51.9,30.19,WSW,249,2.0,-999.0,46,0.00,,,0.00,Wunderground v.1.15,2013-01-25 22:14:00,
2013-01-25 17:19:00,73.5,50.9,30.19,SW,226,2.0,-999.0,45,0.00,,,0.00,Wunderground v.1.15,2013-01-25 22:19:00,
2013-01-25 17:24:00,73.3,50.1,30.19,WSW,250,2.0,-999.0,44,0.00,,,0.00,Wunderground v.1.15,2013-01-25 22:24:00,
2013-01-25 17:29:00,72.8,50.8,30.19,WSW,238,2.0,-999.0,46,0.00,,,0.00,Wunderground v.1.15,2013-01-25 22:29:00,
2013-01-25 17:39:00,71.9,49.4,30.19,NW,306,1.0,-999.0,45,0.00,,,0.00,Wunderground v.1.15,2013-01-25 22:39:00,
2013-01-25 17:44:00,71.6,49.7,30.19,WNW,300,1.0,-999.0,46,0.00,,,0.00,Wunderground v.1.15,2013-01-25 22:44:00,
2013-01-25 17:49:00,71.2,49.9,30.19,WNW,300,1.0,-999.0,47,0.00,,,0.00,Wunderground v.1.15,2013-01-25 22:49:00,
2013-01-25 17:54:00,70.8,49.6,30.19,WNW,300,0.0,-999.0,47,0.00,,,0.00,Wunderground v.1.15,2013-01-25 22:54:00,
2013-01-25 17:59:00,70.4,49.8,30.19,WNW,300,0.0,-999.0,48,0.00,,,0.00,Wunderground v.1.15,2013-01-25 22:59:00,
2013-01-25 18:09:00,69.6,49.6,30.19,WNW,300,0.0,-999.0,49,0.00,,,0.00,Wunderground v.1.15,2013-01-25 23:09:00,
2013-01-25 18:14:00,69.2,49.8,30.19,WNW,300,0.0,-999.0,50,0.00,,,0.00,Wunderground v.1.15,2013-01-25 23:14:00,
2013-01-25 18:19:00,68.9,49.5,30.19,WNW,300,0.0,-999.0,50,0.00,,,0.00,Wunderground v.1.15,2013-01-25 23:19:00,
2013-01-25 18:24:00,68.5,50.2,30.20,WNW,300,0.0,-999.0,52,0.00,,,0.00,Wunderground v.1.15,2013-01-25 23:24:00,
2013-01-25 18:29:00,68.3,50.0,30.20,WNW,300,0.0,-999.0,52,0.00,,,0.00,Wunderground v.1.15,2013-01-25 23:29:00,
2013-01-25 18:34:00,68.0,49.7,30.20,WNW,300,0.0,-999.0,52,0.00,,,0.00,Wunderground v.1.15,2013-01-25 23:34:00,
2013-01-25 18:39:00,67.8,50.0,30.20,WNW,300,0.0,-999.0,53,0.00,,,0.00,Wunderground v.1.15,2013-01-25 23:39:00,
2013-01-25 18:44:00,67.6,49.9,30.20,WNW,300,0.0,-999.0,53,0.00,,,0.00,Wunderground v.1.15,2013-01-25 23:44:00,
2013-01-25 18:54:00,67.0,51.7,30.20,WNW,300,1.0,-999.0,58,0.00,,,0.00,Wunderground v.1.15,2013-01-25 23:54:00,
2013-01-25 18:59:00,66.7,52.4,30.20,WNW,300,1.0,-999.0,60,0.00,,,0.00,Wunderground v.1.15,2013-01-25 23:59:00,
2013-01-25 19:04:00,66.4,52.5,30.20,WNW,300,0.0,-999.0,61,0.00,,,0.00,Wunderground v.1.15,2013-01-26 00:04:00,
2013-01-25 19:14:00,66.1,53.1,30.20,WNW,300,0.0,-999.0,63,0.00,,,0.00,Wunderground v.1.15,2013-01-26 00:14:00,
2013-01-25 19:19:00,65.9,53.4,30.20,WNW,300,0.0,-999.0,64,0.00,,,0.00,Wunderground v.1.15,2013-01-26 00:19:00,
2013-01-25 19:24:00,65.5,53.8,30.20,WNW,300,1.0,-999.0,66,0.00,,,0.00,Wunderground v.1.15,2013-01-26 00:24:00,
2013-01-25 19:29:00,65.2,54.0,30.21,WNW,300,1.0,-999.0,67,0.00,,,0.00,Wunderground v.1.15,2013-01-26 00:29:00,
2013-01-25 19:34:00,65.0,54.2,30.21,WNW,300,1.0,-999.0,68,0.00,,,0.00,Wunderground v.1.15,2013-01-26 00:34:00,
2013-01-25 19:39:00,64.8,54.0,30.21,WNW,300,1.0,-999.0,68,0.00,,,0.00,Wunderground v.1.15,2013-01-26 00:39:00,
2013-01-25 19:44:00,64.6,54.2,30.21,NW,307,1.0,-999.0,69,0.00,,,0.00,Wunderground v.1.15,2013-01-26 00:44:00,
2013-01-25 19:49:00,64.4,54.4,30.21,NW,307,2.0,-999.0,70,0.00,,,0.00,Wunderground v.1.15,2013-01-26 00:49:00,
2013-01-25 19:59:00,64.2,54.2,30.21,NW,307,0.0,-999.0,70,0.00,,,0.00,Wunderground v.1.15,2013-01-26 00:59:00,
2013-01-25 20:04:00,64.1,55.3,30.22,NW,307,0.0,-999.0,73,0.00,,,0.00,Wunderground v.1.15,2013-01-26 01:04:00,
2013-01-25 20:14:00,63.8,55.4,30.21,NW,307,0.0,-999.0,74,0.00,,,0.00,Wunderground v.1.15,2013-01-26 01:14:00,
2013-01-25 20:19:00,63.5,56.2,30.22,NW,307,0.0,-999.0,77,0.00,,,0.00,Wunderground v.1.15,2013-01-26 01:19:00,
2013-01-25 20:24:00,63.3,56.0,30.22,NW,307,0.0,-999.0,77,0.00,,,0.00,Wunderground v.1.15,2013-01-26 01:24:00,
2013-01-25 20:29:00,63.1,55.8,30.22,NW,307,0.0,-999.0,77,0.00,,,0.00,Wunderground v.1.15,2013-01-26 01:29:00,
2013-01-25 20:34:00,62.7,55.4,30.21,NW,307,0.0,-999.0,77,0.00,,,0.00,Wunderground v.1.15,2013-01-26 01:34:00,
2013-01-25 20:39:00,62.3,55.7,30.21,NW,307,0.0,-999.0,79,0.00,,,0.00,Wunderground v.1.15,2013-01-26 01:39:00,
2013-01-25 20:44:00,62.2,56.0,30.21,NW,307,0.0,-999.0,80,0.00,,,0.00,Wunderground v.1.15,2013-01-26 01:44:00,
2013-01-25 20:49:00,62.0,55.8,30.21,NW,307,0.0,-999.0,80,0.00,,,0.00,Wunderground v.1.15,2013-01-26 01:49:00,
2013-01-25 20:59:00,61.5,54.6,30.22,NW,307,0.0,-999.0,78,0.00,,,0.00,Wunderground v.1.15,2013-01-26 01:59:00,
2013-01-25 21:04:00,61.1,54.9,30.22,NW,307,0.0,-999.0,80,0.00,,,0.00,Wunderground v.1.15,2013-01-26 02:04:00,
2013-01-25 21:14:00,60.8,55.6,30.21,NW,307,0.0,-999.0,83,0.00,,,0.00,Wunderground v.1.15,2013-01-26 02:14:00,
2013-01-25 21:19:00,60.5,54.3,30.21,NW,307,0.0,-999.0,80,0.00,,,0.00,Wunderground v.1.15,2013-01-26 02:19:00,
2013-01-25 21:24:00,60.4,54.9,30.22,NW,307,0.0,-999.0,82,0.00,,,0.00,Wunderground v.1.15,2013-01-26 02:24:00,
2013-01-25 21:29:00,60.1,54.6,30.22,NW,307,0.0,-999.0,82,0.00,,,0.00,Wunderground v.1.15,2013-01-26 02:29:00,
2013-01-25 21:34:00,59.8,55.0,30.22,NW,307,0.0,-999.0,84,0.00,,,0.00,Wunderground v.1.15,2013-01-26 02:34:00,
2013-01-25 21:39:00,59.7,54.9,30.22,NW,307,0.0,-999.0,84,0.00,,,0.00,Wunderground v.1.15,2013-01-26 02:39:00,
2013-01-25 21:49:00,59.5,54.0,30.22,NW,307,0.0,-999.0,82,0.00,,,0.00,Wunderground v.1.15,2013-01-26 02:49:00,
2013-01-25 21:54:00,59.4,53.9,30.22,NW,307,0.0,-999.0,82,0.00,,,0.00,Wunderground v.1.15,2013-01-26 02:54:00,
2013-01-25 21:59:00,59.4,53.9,30.23,NW,307,0.0,-999.0,82,0.00,,,0.00,Wunderground v.1.15,2013-01-26 02:59:00,
2013-01-25 22:09:00,59.3,54.8,30.23,NW,307,0.0,-999.0,85,0.00,,,0.00,Wunderground v.1.15,2013-01-26 03:09:00,
2013-01-25 22:14:00,59.1,54.6,30.23,NW,307,0.0,-999.0,85,0.00,,,0.00,Wunderground v.1.15,2013-01-26 03:14:00,
2013-01-25 22:19:00,58.9,53.7,30.23,NW,307,0.0,-999.0,83,0.00,,,0.00,Wunderground v.1.15,2013-01-26 03:19:00,
2013-01-25 22:24:00,58.8,53.6,30.23,NW,307,0.0,-999.0,83,0.00,,,0.00,Wunderground v.1.15,2013-01-26 03:24:00,
2013-01-25 22:29:00,58.7,53.5,30.23,NW,307,0.0,-999.0,83,0.00,,,0.00,Wunderground v.1.15,2013-01-26 03:29:00,
2013-01-25 22:34:00,58.7,53.5,30.23,NW,307,0.0,-999.0,83,0.00,,,0.00,Wunderground v.1.15,2013-01-26 03:34:00,
2013-01-25 22:44:00,58.6,53.5,30.23,NW,307,0.0,-999.0,83,0.00,,,0.00,Wunderground v.1.15,2013-01-26 03:44:00,
2013-01-25 22:49:00,58.5,52.7,30.23,NW,307,0.0,-999.0,81,0.00,,,0.00,Wunderground v.1.15,2013-01-26 03:49:00,
2013-01-25 22:54:00,58.4,52.6,30.23,NW,307,0.0,-999.0,81,0.00,,,0.00,Wunderground v.1.15,2013-01-26 03:54:00,
2013-01-25 22:59:00,58.5,53.0,30.23,NW,307,0.0,-999.0,82,0.00,,,0.00,Wunderground v.1.15,2013-01-26 03:59:00,
2013-01-25 23:09:00,58.1,53.0,30.23,NW,307,0.0,-999.0,83,0.00,,,0.00,Wunderground v.1.15,2013-01-26 04:09:00,
2013-01-25 23:14:00,57.9,52.4,30.23,NW,307,0.0,-999.0,82,0.00,,,0.00,Wunderground v.1.15,2013-01-26 04:14:00,
2013-01-25 23:19:00,57.8,52.0,30.23,NW,307,0.0,-999.0,81,0.00,,,0.00,Wunderground v.1.15,2013-01-26 04:19:00,
2013-01-25 23:24:00,57.6,51.5,30.23,NW,307,0.0,-999.0,80,0.00,,,0.00,Wunderground v.1.15,2013-01-26 04:24:00,
2013-01-25 23:29:00,57.6,51.5,30.23,NW,307,0.0,-999.0,80,0.00,,,0.00,Wunderground v.1.15,2013-01-26 04:29:00,
2013-01-25 23:39:00,57.5,52.4,30.23,NW,307,0.0,-999.0,83,0.00,,,0.00,Wunderground v.1.15,2013-01-26 04:39:00,
2013-01-25 23:44:00,57.5,51.7,30.23,NW,307,0.0,-999.0,81,0.00,,,0.00,Wunderground v.1.15,2013-01-26 04:44:00,
2013-01-25 23:49:00,57.3,51.2,30.23,NW,307,0.0,-999.0,80,0.00,,,0.00,Wunderground v.1.15,2013-01-26 04:49:00,
2013-01-25 23:54:00,57.2,52.1,30.22,NW,307,0.0,-999.0,83,0.00,,,0.00,Wunderground v.1.15,2013-01-26 04:54:00,
2013-01-25 23:59:00,57.0,51.9,30.22,NW,307,0.0,-999.0,83,0.00,,,0.00,Wunderground v.1.15,2013-01-26 04:59:00,